This is the latest recevied weather packets stored in our database for station/object M0JUI-1. If no packets are shown the sender has not sent any weather packets the latest 10 day(s).
| Time | Temp. | Humidity | Pressure | Rain* | Wind** | Luminosity | Snow |
|---|---|---|---|---|---|---|---|
| 1777836916 | 11.11° C | 99% | 1011.3 hPa | 0 mm | - | 0 W/m² | - |
| 1777836619 | 11.11° C | 99% | 1011.3 hPa | 0 mm | - | 0 W/m² | - |
| 1777836315 | 11.11° C | 99% | 1011.2 hPa | 0 mm | - | 0 W/m² | - |
| 1777836018 | 11.11° C | 99% | 1011.3 hPa | 0 mm | - | 0 W/m² | - |
| 1777835715 | 11.11° C | 99% | 1011 hPa | 0 mm | - | 2 W/m² | - |
| 1777835417 | 11.11° C | 99% | 1011 hPa | 0 mm | - | 2 W/m² | - |
| 1777835116 | 11.11° C | 99% | 1010.9 hPa | 0 mm | - | 0 W/m² | - |
| 1777834818 | 11.11° C | 99% | 1011 hPa | 0 mm | - | 3 W/m² | - |
| 1777834516 | 11.11° C | 99% | 1010.8 hPa | 0 mm | - | 2 W/m² | - |
| 1777834216 | 11.11° C | 99% | 1010.9 hPa | 0 mm | - | 3 W/m² | - |
| 1777833915 | 11.11° C | 99% | 1010.8 hPa | 0 mm | - | 3 W/m² | - |
| 1777833606 | 11.11° C | 99% | 1010.8 hPa | 0 mm | - | 4 W/m² | - |
| 1777833303 | 11.11° C | 99% | 1010.6 hPa | 0 mm | - | 10 W/m² | - |
| 1777833008 | 11.11° C | 99% | 1010.7 hPa | 0 mm | - | 12 W/m² | - |
| 1777832691 | 11.11° C | 99% | 1010.8 hPa | 0 mm | - | 12 W/m² | - |
| 1777832392 | 11.11° C | 99% | 1010.8 hPa | 0 mm | - | 9 W/m² | - |
| 1777832091 | 11.67° C | 99% | 1010.7 hPa | 0 mm | - | 9 W/m² | - |
| 1777831779 | 11.67° C | 99% | 1010.5 hPa | 0 mm | - | 12 W/m² | - |
| 1777831480 | 11.67° C | 99% | 1010.4 hPa | 0 mm | - | 15 W/m² | - |
| 1777831180 | 11.67° C | 99% | 1010.5 hPa | 0 mm | - | 12 W/m² | - |
| 1777830867 | 11.67° C | 99% | 1010.4 hPa | 0 mm | - | 11 W/m² | - |
| 1777830567 | 12.22° C | 99% | 1010.5 hPa | 0 mm | - | 14 W/m² | - |
| 1777830267 | 12.22° C | 99% | 1010.4 hPa | 0 mm | - | 22 W/m² | - |
| 1777829967 | 12.22° C | 99% | 1010.4 hPa | 0 mm | - | 33 W/m² | - |
| 1777829668 | 12.22° C | 99% | 1010.4 hPa | 0 mm | - | 39 W/m² | - |
* Rain latest hour (hover to see other rain measurements)
** Current wind speed in m/s (hover to see current wind gust speed)